Weather History for New Orleans Lakefront, LA

Change the Weather History Date:

Wednesday, August 15, 2012

  Actual Average Record
Temperature  
Mean Temperature 86 °F 83 °F  
Max Temperature 94 °F 91 °F 98 °F (1995)
Min Temperature 78 °F 75 °F 65 °F (1965)
Degree Days  
Heating Degree Days 0 0  
Month to date heating degree days 0 0  
Since 1 June heating degree days 0 0  
Since 1 July heating degree days 0 0  
Cooling Degree Days 21 18  
Month to date cooling degree days 292 270  
Year to date cooling degree days 2415 1950  
Since 1 June cooling degree days 1399 1331  
Growing Degree Days 38 (Base 50)    
Moisture  
Dew Point 76 °F    
Average Humidity 75    
Maximum Humidity 97    
Minimum Humidity 52    
Precipitation  
Precipitation 0.42 in 0.20 in 2.23 in (1985)
Month to date precipitation 3.52 2.91  
Year to date precipitation 42.13 41.14  
Snow  
Snow 0.00 in - - ()
Month to date snowfall 0.0  
Since 1 June snowfall 0.0  
Since 1 July snowfall 0.0  
Snow Depth 0.00 in    
Sea Level Pressure  
Sea Level Pressure 29.96 in    
Wind  
Wind Speed 5 mph (WSW)    
Max Wind Speed 17 mph    
Max Gust Speed 22 mph    
Visibility 10 miles    
Events      
T = Trace of Precipitation, MM = Missing Value Source: NWS Daily Summary

Daily Weather History Graph

Daily Weather History Graph

Search for Another Location

Airport:

Trip Planner

Search our weather history database for the weather conditions in past years. The results will help you decide how hot, cold, wet, or windy it might be!

Date:

Astronomy

Aug. 15, 2012 Rise Set
Actual Time 6:27 AM CDT 7:40 PM CDT
Civil Twilight 6:02 AM CDT 8:05 PM CDT
Nautical Twilight 5:32 AM CDT 8:35 PM CDT
Astronomical Twilight 5:01 AM CDT 9:06 PM CDT
Moon 4:28 AM CDT (8/15) 6:12 PM CDT (8/15)
Length of Visible Light 14h 03m
Length of Day
13h 13m
Waning Crescent, 4% of the Moon is Illuminated
Aug 15
Waning Crescent
Aug 17
New
Aug 24
First Quarter
Aug 31
Full
Sep 8
Last Quarter

Hourly Weather History & Observations

Time (CDT) Temp. Heat Index Dew Point Humidity Pressure Visibility Wind Dir Wind Speed Gust Speed Precip Events Conditions
12:53 AM 86.0 °F 96.9 °F 77.0 °F 74% 29.92 in 10.0 mi SW 8.1 mph - N/A   Clear
1:53 AM 84.9 °F 95.3 °F 77.0 °F 77% 29.91 in 10.0 mi WSW 9.2 mph - N/A   Clear
2:53 AM 84.0 °F 92.6 °F 75.9 °F 76% 29.91 in 10.0 mi SW 6.9 mph - N/A   Clear
3:53 AM 84.0 °F 92.6 °F 75.9 °F 76% 29.92 in 10.0 mi WSW 8.1 mph - N/A   Clear
4:53 AM 84.0 °F 93.7 °F 77.0 °F 79% 29.93 in 10.0 mi WSW 5.8 mph - N/A   Clear
5:53 AM 82.9 °F 91.8 °F 77.0 °F 82% 29.94 in 10.0 mi SW 4.6 mph - N/A   Clear
6:53 AM 82.9 °F 91.8 °F 77.0 °F 82% 29.96 in 10.0 mi SW 5.8 mph - N/A   Clear
7:53 AM 84.0 °F 93.7 °F 77.0 °F 79% 29.98 in 10.0 mi SW 3.5 mph - N/A   Scattered Clouds
8:05 AM 84.2 °F 94.1 °F 77.0 °F 79% 30.00 in 10.0 mi Calm Calm - N/A   Mostly Cloudy
8:20 AM 86.0 °F 96.9 °F 77.0 °F 74% 30.01 in 10.0 mi WNW 4.6 mph - N/A   Partly Cloudy
8:53 AM 87.1 °F 99.8 °F 78.1 °F 74% 30.01 in 10.0 mi West 3.5 mph - N/A   Partly Cloudy
9:53 AM 88.0 °F 101.3 °F 78.1 °F 72% 30.01 in 10.0 mi NW 8.1 mph - N/A   Clear
10:53 AM 90.0 °F 104.5 °F 78.1 °F 68% 30.01 in 10.0 mi NW 11.5 mph - N/A   Clear
11:53 AM 91.0 °F 104.2 °F 77.0 °F 63% 30.00 in 10.0 mi WNW 6.9 mph - N/A   Clear
12:53 PM 91.9 °F 103.9 °F 75.9 °F 59% 29.99 in 10.0 mi NNW 5.8 mph - N/A   Clear
1:53 PM 93.0 °F 103.2 °F 73.9 °F 54% 29.97 in 10.0 mi NNW 6.9 mph - N/A   Partly Cloudy
2:53 PM 93.0 °F 103.2 °F 73.9 °F 54% 29.94 in 10.0 mi NW 4.6 mph - N/A   Clear
3:53 PM 93.9 °F 104.0 °F 73.9 °F 52% 29.93 in 10.0 mi NW 5.8 mph - N/A   Clear
4:53 PM 95.0 °F 105.2 °F 73.9 °F 50% 29.91 in 10.0 mi North 6.9 mph - N/A   Clear
5:53 PM 88.0 °F 95.6 °F 73.0 °F 61% 29.93 in 10.0 mi South 13.8 mph - N/A   Scattered Clouds
6:53 PM 87.1 °F 95.4 °F 73.9 °F 65% 29.94 in 10.0 mi South 10.4 mph - N/A   Clear
7:53 PM 86.0 °F 93.8 °F 73.9 °F 67% 29.94 in 10.0 mi SSW 12.7 mph - N/A   Clear
8:53 PM 84.0 °F 90.2 °F 73.0 °F 69% 29.94 in 10.0 mi South 11.5 mph - N/A   Clear
9:53 PM 86.0 °F 93.8 °F 73.9 °F 67% 29.96 in 10.0 mi SW 11.5 mph - N/A   Clear
10:53 PM 84.9 °F 93.3 °F 75.0 °F 72% 29.97 in 10.0 mi SSW 6.9 mph - N/A   Clear
11:53 PM 84.9 °F 93.3 °F 75.0 °F 72% 29.98 in 10.0 mi SSW 4.6 mph - N/A   Clear